Date,TemperatureHighF,TemperatureAvgF,TemperatureLowF,DewpointHighF,DewpointAvgF,DewpointLowF,HumidityHigh,HumidityAvg,HumidityLow,PressureMaxIn,PressureMinIn,WindSpeedMaxMPH,WindSpeedAvgMPH,GustSpeedMaxMPH,PrecipitationSumIn
2013-2-1,63,54,48,58,52,48,100,93,71,30.37,29.81,20,9,24,0.01
2013-2-2,59,53,45,50,44,37,90,71,60,29.86,29.63,25,10,38,0.06
2013-2-3,50,47,38,37,32,27,80,58,43,30.34,29.86,32,11,43,0.00
2013-2-4,58,47,36,43,38,30,85,71,50,30.40,30.31,15,5,18,0.00
2013-2-5,62,53,45,52,47,41,97,81,55,30.32,29.98,17,6,20,0.00
2013-2-6,55,51,46,50,40,35,95,68,49,29.97,29.77,30,10,37,0.00
2013-2-7,51,46,38,40,33,25,91,62,40,30.09,29.82,29,8,41,0.20
2013-2-8,52,44,36,41,37,30,90,76,56,30.09,29.89,19,3,23,0.01
2013-2-9,48,44,38,40,33,29,89,67,49,30.19,30.01,27,10,34,0.00
2013-2-10,58,51,38,50,42,35,87,72,48,30.15,29.72,25,12,31,0.00
2013-2-11,56,50,46,50,39,33,85,65,48,29.74,29.63,28,10,30,0.00
2013-2-12,52,48,41,42,36,30,86,66,45,29.98,29.66,25,8,33,0.02
2013-2-13,53,46,38,44,41,35,94,82,69,30.16,29.96,11,3,14,0.00
2013-2-14,59,48,37,48,43,35,96,84,59,30.23,30.16,14,2,15,0.00
2013-2-15,60,50,42,53,46,41,99,84,63,30.21,30.11,15,4,18,0.01
2013-2-16,59,51,43,49,44,41,94,80,59,30.21,30.12,11,2,12,0.00
2013-2-17,57,50,42,50,47,41,96,88,76,30.13,29.95,9,2,14,0.00
2013-2-18,60,53,48,53,50,46,96,89,70,30.00,29.90,8,1,12,0.02
2013-2-19,56,51,44,51,46,39,97,84,69,30.02,29.94,12,4,16,0.01
2013-2-20,59,50,44,45,41,35,92,73,42,29.97,29.89,8,2,11,0.00
2013-2-21,63,50,36,55,46,36,98,86,57,29.94,29.72,14,4,16,0.00
2013-2-22,58,55,52,53,50,49,95,86,74,29.72,29.52,21,7,28,0.02
2013-2-23,52,44,36,51,41,34,97,89,73,29.89,29.37,23,7,41,0.03
2013-2-24,49,41,34,36,33,29,96,75,48,30.00,29.89,15,3,20,0.03
2013-2-25,44,40,36,39,36,34,94,88,76,30.14,29.98,15,4,19,0.01
2013-2-26,48,38,32,40,36,31,97,93,73,30.22,30.10,15,2,23,0.20
2013-2-27,52,42,29,43,36,28,98,82,58,30.23,30.10,10,3,16,0.01
2013-2-28,54,52,48,51,47,39,96,84,68,30.10,29.82,25,11,29,0.54